Skip Page Navigation
NASA JPL Caltech
NASA Logo - Jet Propulsion Laboratory + View the NASA Portal
+ Near-Earth Object (NEO) Program
Search JPL
JPL Home Earth Solar System Stars & Galaxies Technology
JPL Solar System Dynamics
BODIES ORBITS EPHEMERIDES TOOLS PHYSICAL DATA DISCOVERY FAQ SITE MAP
JPL Small-Body Database Browser
Search: [ help ]  
16225 Georgebaldo (2000 DF71)
Classification: Main-belt Asteroid          SPK-ID: 2016225
Ephemeris | Orbit Diagram | Orbital Elements | Physical Parameters | Discovery Circumstances | Close-Approach Data ]

[ show orbit diagram ]
Orbital Elements at Epoch 2457000.5 (2014-Dec-09.0) TDB
Reference: JPL 8 (heliocentric ecliptic J2000)
 Element Value Uncertainty (1-sigma)   Units 
e .01820997713841285 7.7776e-08  
a 2.584859132086279 2.1938e-08 AU
q 2.53778890638497 2.1148e-07 AU
i 1.71313653442404 6.0533e-06 deg
node 228.9242802502143 0.00020715 deg
peri 130.900127814931 0.00025415 deg
M 9.145357180994873 0.00014758 deg
tp 2456961.938677653795
(2014-Oct-31.43867765)
0.00062226 JED
period 1517.937000151551
4.16
1.9324e-05
5.291e-08
d
yr
n .2371639929483619 3.0193e-09 deg/d
Q 2.631929357787587 2.2338e-08 AU
  Orbit Determination Parameters
   # obs. used (total)      698  
   data-arc span      15896 days (43.52 yr)  
   first obs. used      1971-03-24  
   last obs. used      2014-09-30  
   planetary ephem.      DE431  
   SB-pert. ephem.      SB431-BIG16  
   condition code      0  
   fit RMS      .53327  
   data source      ORB  
   producer      Otto Matic  
   solution date      2014-Oct-09 14:32:02  

Additional Information
 Earth MOID = 1.53315 AU 
 T_jup = 3.422 
[ show covariance matrix ]

Ephemeris | Orbit Diagram | Orbital Elements | Physical Parameters | Discovery Circumstances | Close-Approach Data ]

Physical Parameter Table
Parameter Symbol Value Units Sigma Reference Notes
absolute magnitude H 15.1 mag n/a MPO263492  

16225 Georgebaldo           Discovered 2000 Feb. 29 by the Lincoln Laboratory Near-Earth Asteroid Research Team at Socorro.
Named in honor of George J. Baldo for mentoring a finalist in the 2002 Intel Science Talent Search, a science competition for high school seniors. Baldo is a teacher at the Ward Melville High School, East Setauket, New York.
NOTE: some special characters may not display properly (any characters within {} are an attempt to place the proper accent above a character)
Reference: 20020227/MPCPages.arcLast Updated: 2003-10-02

[ show close-approach data ]
Alternate Designations
 2000 DF71 = 1125 T-1 = 1998 WH17 
Ephemeris | Orbit Diagram | Orbital Elements | Physical Parameters | Discovery Circumstances | Close-Approach Data ]
ABOUT SSD CREDITS/AWARDS PRIVACY/COPYRIGHT GLOSSARY LINKS
FirstGov 2014-Oct-22 04:49 UT
(server date/time)  
NASA Home Page
Site Manager:   Donald K. Yeomans
Webmaster  Alan B. Chamberlin